Flag for Turkmenistan Weather past 2 weeks in Ashgabat, Turkmenistan

Now
30 °F

Light freezing rain. Overcast.


Feels Like: 21 °F
Forecast: 34 / 42 °F
Wind: 10 mph from Northeast

Location: Ashgabat

Current Time: Mar 30, 2015 at 6:28:48 AM

Latest Report: Mar 30, 2015 at 6:00 AM


Visibility: N/A

Pressure: 30.39 "Hg

Humidity: 69%

Dew point: 21 °F

Location of AshgabatLocation

Historic Weather in Ashgabat — Graph

°F

Ashgabat temperature yesterday

Maximum temperature yesterday: 57 °F (at 2:00 PM)
Minimum temperature yesterday: 39 °F (at 11:00 PM)
Average temperature yesterday: 49 °F

Past Weeks' High & Low Weather Summary

 TemperatureHumidityPressure
High75 °F (Mar 21, 4:00 PM)100% (Mar 23, 7:30 AM)30.39 "Hg (Mar 23, 7:30 AM)
Low30 °F (Mar 30, 5:00 AM)25% (Mar 30, 4:00 AM)29.62 "Hg (Mar 23, 5:00 AM)
Average53 °F62%30.16 "Hg
* Reported Mar 15 5:00 AM — Mar 30 5:00 AM, Ashgabat, Weather by CustomWeather, © 2015

Note: Actual official high and low records may vary slightly from our data, if they occured in-between our weather recording intervals... More about our weather records

Advertising

Ashgabat weather history for previous 24 hours

 ConditionsComfort  
Time TempWeatherWind HumidityBarometerVisibility
5:00 AM
Mon, Mar 30
30 °FLight freezing rain. Overcast.15 mph64%30.39 "HgN/A
4:00 AM36 °FMostly cloudy.13 mph25%30.36 "HgN/A
3:00 AM36 °FMostly cloudy.13 mph27%30.36 "HgN/A
2:00 AM37 °FOvercast.10 mph26%30.36 "HgN/A
1:00 AM37 °FOvercast.8 mph26%30.39 "HgN/A
12:00 AM39 °FOvercast.6 mph26%30.39 "HgN/A
11:00 PM
Sun, Mar 29
39 °FOvercast.8 mph28%30.36 "Hg6 mi
10:00 PM41 °FOvercast.10 mph28%30.36 "Hg6 mi
9:00 PM41 °FOvercast.10 mph33%30.33 "Hg5 mi
8:30 PM43 °FOvercast.10 mph34%30.33 "Hg4 mi
8:00 PM45 °FOvercast.13 mph37%30.30 "Hg4 mi
7:30 PM45 °FOvercast.13 mph39%30.27 "Hg5 mi
7:00 PM46 °FOvercast.10 mph46%30.24 "HgN/A
6:30 PM48 °FOvercast.10 mph43%30.24 "HgN/A
6:00 PM50 °FOvercast.10 mph43%30.18 "HgN/A
5:30 PM50 °FOvercast.10 mph43%30.21 "HgN/A
5:00 PM52 °FOvercast.10 mph44%30.21 "HgN/A
4:30 PM54 °FMostly cloudy.10 mph47%30.18 "HgN/A
4:00 PM54 °FMostly cloudy.6 mph47%30.15 "HgN/A
3:30 PM54 °FMostly cloudy.8 mph51%30.15 "HgN/A
3:00 PM55 °FMostly cloudy.10 mph47%30.18 "HgN/A
2:30 PM57 °FMostly cloudy.6 mph44%30.18 "HgN/A
2:00 PM57 °FMostly cloudy.3 mph41%30.15 "HgN/A
1:30 PM55 °FMostly cloudy.3 mph44%30.18 "HgN/A
1:00 PM55 °FMostly cloudy.3 mph41%30.18 "HgN/A
12:30 PM54 °FMostly cloudy.3 mph47%30.18 "HgN/A
12:00 PM54 °FMostly cloudy.6 mph44%30.18 "HgN/A
11:00 AM54 °FMostly cloudy.3 mph41%30.21 "HgN/A
10:00 AM52 °FMostly cloudy.1 mph44%30.18 "HgN/A
9:00 AM48 °FBroken clouds.3 mph46%30.15 "HgN/A
8:30 AM46 °FBroken clouds.1 mph57%30.15 "HgN/A
8:00 AM45 °FBroken clouds.1 mph66%30.15 "HgN/A
7:30 AM43 °FPassing clouds.3 mph76%30.12 "HgN/A
7:00 AM43 °FPassing clouds.3 mph87%30.12 "HgN/A
6:00 AM46 °FPassing clouds.1 mph82%30.09 "HgN/A
Weather by CustomWeather, © 2015

See weather overviewHow to use our weather pages